Flag for Germany Weather past 2 weeks in Erding, Bavaria, Germany

Now
34 °F

Partly sunny.


Feels Like: 29 °F
Forecast: 33 / 35 °F
Wind: 6 mph from West

Location: Erding Airport

Current Time: Jan 26, 2015 at 2:31:24 PM

Latest Report: Jan 26, 2015 at 1:20 PM


Visibility: N/A

Pressure: 30.24 "Hg

Humidity: 75%

Dew point: 27 °F

Location of ErdingLocation

Historic Weather in Erding — Graph

°F

Erding temperature yesterday

Maximum temperature yesterday: 34 °F (at 12:20 PM)
Minimum temperature yesterday: 30 °F (at 4:20 AM)
Average temperature yesterday: 32 °F

Past Weeks' High & Low Weather Summary

 TemperatureHumidityPressure
High54 °F (Jan 13, 1:20 PM)100% (Jan 11, 1:20 PM)30.33 "Hg (Jan 11, 1:20 PM)
Low28 °F (Jan 13, 7:20 AM)32% (Jan 13, 11:20 AM)29.77 "Hg (Jan 15, 9:20 PM)
Average35 °F87%30.01 "Hg
* Reported Jan 11 1:20 PM — Jan 26 1:20 PM, Erding, Weather by CustomWeather, © 2014

Note: Actual official high and low records may vary slightly from our data, if they occured in-between our weather recording intervals... More about our weather records

Advertising

Erding weather history for previous 24 hours

 ConditionsComfort  
Time TempWeatherWind HumidityBarometerVisibility
1:20 PM
Jan 26
34 °FPartly sunny.6 mph75%30.24 "HgN/A
12:20 PM34 °FPartly sunny.5 mph75%30.24 "HgN/A
11:20 AM32 °FBroken clouds.6 mph80%30.27 "HgN/A
10:20 AM32 °FBroken clouds.8 mph80%30.27 "HgN/A
9:20 AM32 °FOvercast.6 mph87%30.30 "HgN/A
8:20 AM30 °FLow clouds.6 mph93%30.30 "HgN/A
7:20 AM30 °FLight snow. Low clouds.7 mph100%30.30 "HgN/A
6:20 AM30 °FChilly.8 mph100%30.30 "Hg1 mi
5:20 AM30 °FChilly.7 mph93%30.30 "Hg2 mi
4:20 AM30 °FChilly.7 mph93%30.30 "Hg2 mi
3:20 AM30 °FChilly.8 mph100%30.30 "Hg2 mi
2:20 AM30 °FChilly.8 mph100%30.30 "Hg1 mi
1:20 AM30 °FChilly.10 mph100%30.30 "Hg1 mi
12:20 AM30 °FChilly.12 mph100%30.33 "Hg1 mi
11:20 PM
Jan 25
30 °FChilly.7 mph100%30.33 "Hg1 mi
10:20 PM30 °FChilly.6 mph100%30.33 "Hg1 mi
9:20 PM32 °FChilly.6 mph100%30.33 "Hg1 mi
8:20 PM32 °FChilly.7 mph93%30.33 "Hg2 mi
7:20 PM32 °FChilly.5 mph93%30.33 "Hg3 mi
6:20 PM32 °FChilly.5 mph93%30.33 "Hg3 mi
5:20 PM32 °FChilly.5 mph93%30.33 "Hg3 mi
4:20 PM34 °FChilly.7 mph87%30.33 "Hg3 mi
3:20 PM34 °FChilly.5 mph87%30.33 "Hg3 mi
2:20 PM34 °FChilly.8 mph87%30.30 "Hg3 mi
Weather by CustomWeather, © 2014

See weather overviewHow to use our weather pages